• Em Portugal
  • Lista de países
  • Para 7 dias
  • Temperatura da água
  • Mapas de satélite
  • Mapa do tempo
  • Widgets de tempo
  • user-avatar
    Iniciar Sessão

    Previsão horária em Hmelevaya

    Hoje, 22 Setembro, Sábado

    Tempo Temperatura Precipitação Vento Pressão Humidade
    00:00 +19°C° 0 mm 1 m/s 750 mmHg 67%
    01:00 +19°C° 0 mm 1 m/s 750 mmHg 69%
    02:00 +17°C° 0 mm 2 m/s 750 mmHg 70%
    03:00 +18°C° 0 mm 1 m/s 750 mmHg 70%
    04:00 +18°C° 0 mm 1 m/s 750 mmHg 71%
    05:00 +16°C° 0 mm 2 m/s 750 mmHg 73%
    06:00 +16°C° 0 mm 2 m/s 749 mmHg 74%
    07:00 +17°C° 0 mm 2 m/s 749 mmHg 70%
    08:00 +19°C° 0 mm 3 m/s 749 mmHg 66%
    09:00 +20°C° 0 mm 3 m/s 749 mmHg 61%
    10:00 +22°C° 0 mm 4 m/s 749 mmHg 56%
    11:00 +23°C° 0 mm 4 m/s 749 mmHg 52%
    12:00 +26°C° 0 mm 5 m/s 749 mmHg 47%
    13:00 +26°C° 0 mm 5 m/s 749 mmHg 45%
    14:00 +27°C° 0 mm 5 m/s 748 mmHg 43%
    15:00 +28°C° 0 mm 5 m/s 748 mmHg 41%
    16:00 +26°C° 0 mm 5 m/s 747 mmHg 45%
    17:00 +25°C° 0 mm 4 m/s 747 mmHg 49%
    18:00 +23°C° 0 mm 4 m/s 747 mmHg 54%
    19:00 +22°C° 0 mm 4 m/s 746 mmHg 53%
    20:00 +21°C° 0 mm 5 m/s 746 mmHg 53%
    21:00 +20°C° 0 mm 5 m/s 746 mmHg 52%
    22:00 +20°C° 0 mm 5 m/s 745 mmHg 52%
    23:00 +20°C° 0 mm 5 m/s 745 mmHg 52%

    Amanhã, 23 Setembro, Domingo

    Tempo Temperatura Precipitação Vento Pressão Humidade
    00:00 +19°C° 0 mm 6 m/s 744 mmHg 52%
    01:00 +19°C° 0 mm 6 m/s 744 mmHg 53%
    02:00 +19°C° 0 mm 6 m/s 743 mmHg 55%
    03:00 +17°C° 0 mm 6 m/s 743 mmHg 56%
    04:00 +17°C° 0 mm 6 m/s 742 mmHg 57%
    05:00 +17°C° 0 mm 6 m/s 742 mmHg 58%
    06:00 +16°C° 0 mm 5 m/s 742 mmHg 59%
    07:00 +16°C° 0.1 mm 6 m/s 742 mmHg 63%
    08:00 +16°C° 0.1 mm 6 m/s 742 mmHg 67%
    09:00 +15°C° 0.1 mm 6 m/s 742 mmHg 72%
    10:00 +14°C° 0.6 mm 6 m/s 743 mmHg 75%
    11:00 +12°C° 0.6 mm 5 m/s 743 mmHg 79%
    12:00 +10°C° 0.6 mm 5 m/s 744 mmHg 82%
    13:00 +10°C° 0.2 mm 5 m/s 744 mmHg 80%
    14:00 +12°C° 0.2 mm 4 m/s 744 mmHg 77%
    15:00 +12°C° 0.2 mm 4 m/s 745 mmHg 75%
    16:00 +12°C° 0 mm 4 m/s 745 mmHg 75%
    17:00 +12°C° 0 mm 3 m/s 745 mmHg 74%
    18:00 +12°C° 0 mm 3 m/s 745 mmHg 73%
    19:00 +12°C° 0 mm 3 m/s 745 mmHg 75%
    20:00 +11°C° 0 mm 3 m/s 745 mmHg 76%
    21:00 +11°C° 0 mm 3 m/s 745 mmHg 78%
    22:00 +10°C° 0 mm 3 m/s 745 mmHg 81%
    23:00 +10°C° 0 mm 3 m/s 745 mmHg 84%

    Depois de amanhã, 24 Setembro, Segunda-feira

    Tempo Temperatura Precipitação Vento Pressão Humidade
    00:00 +9°C° 0 mm 3 m/s 745 mmHg 87%
    01:00 +9°C° 0 mm 3 m/s 745 mmHg 88%
    02:00 +9°C° 0 mm 3 m/s 745 mmHg 89%
    03:00 +8°C° 0 mm 3 m/s 746 mmHg 90%
    04:00 +8°C° 0 mm 3 m/s 745 mmHg 89%
    05:00 +8°C° 0 mm 3 m/s 745 mmHg 88%
    06:00 +8°C° 0 mm 3 m/s 745 mmHg 88%
    07:00 +9°C° 0 mm 3 m/s 745 mmHg 82%
    08:00 +11°C° 0 mm 3 m/s 745 mmHg 77%
    09:00 +12°C° 0 mm 4 m/s 745 mmHg 72%
    10:00 +12°C° 0.1 mm 5 m/s 744 mmHg 68%
    11:00 +13°C° 0.1 mm 6 m/s 744 mmHg 65%
    12:00 +14°C° 0.1 mm 7 m/s 743 mmHg 61%
    13:00 +12°C° 1.5 mm 7 m/s 742 mmHg 67%
    14:00 +13°C° 1.5 mm 6 m/s 741 mmHg 72%
    15:00 +11°C° 1.5 mm 6 m/s 740 mmHg 78%
    16:00 +11°C° 2.1 mm 7 m/s 739 mmHg 80%
    17:00 +11°C° 2.1 mm 8 m/s 738 mmHg 81%
    18:00 +11°C° 2.1 mm 9 m/s 737 mmHg 83%
    19:00 +12°C° 1.4 mm 9 m/s 736 mmHg 83%
    20:00 +12°C° 1.4 mm 10 m/s 735 mmHg 84%
    21:00 +12°C° 1.4 mm 10 m/s 734 mmHg 84%
    22:00 +12°C° 0.1 mm 9 m/s 734 mmHg 83%
    23:00 +11°C° 0.1 mm 9 m/s 734 mmHg 82%

    25 Setembro, Terça-feira

    Tempo Temperatura Precipitação Vento Pressão Humidade
    00:00 +10°C° 0.1 mm 8 m/s 734 mmHg 81%
    01:00 +10°C° 0 mm 8 m/s 735 mmHg 81%
    02:00 +9°C° 0 mm 8 m/s 735 mmHg 81%
    03:00 +8°C° 0 mm 7 m/s 736 mmHg 81%
    04:00 +8°C° 0 mm 7 m/s 736 mmHg 81%
    05:00 +8°C° 0 mm 7 m/s 736 mmHg 82%
    06:00 +8°C° 0 mm 7 m/s 737 mmHg 82%
    07:00 +8°C° 0 mm 7 m/s 737 mmHg 81%
    08:00 +7°C° 0 mm 8 m/s 738 mmHg 79%
    09:00 +7°C° 0 mm 8 m/s 738 mmHg 77%
    10:00 +7°C° 0 mm 8 m/s 739 mmHg 76%
    11:00 +8°C° 0 mm 7 m/s 739 mmHg 74%
    12:00 +8°C° 0 mm 7 m/s 740 mmHg 73%
    13:00 +8°C° 0 mm 7 m/s 741 mmHg 72%
    14:00 +8°C° 0 mm 7 m/s 741 mmHg 71%
    15:00 +8°C° 0 mm 7 m/s 742 mmHg 70%
    16:00 +8°C° 0 mm 7 m/s 742 mmHg 71%
    17:00 +7°C° 0 mm 6 m/s 743 mmHg 71%
    18:00 +7°C° 0 mm 6 m/s 743 mmHg 71%
    19:00 +7°C° 0 mm 6 m/s 744 mmHg 72%
    20:00 +7°C° 0 mm 6 m/s 745 mmHg 73%
    21:00 +7°C° 0 mm 5 m/s 745 mmHg 73%
    22:00 +6°C° 0 mm 5 m/s 746 mmHg 74%
    23:00 +6°C° 0 mm 5 m/s 746 mmHg 76%

    26 Setembro, Quarta-feira

    Tempo Temperatura Precipitação Vento Pressão Humidade
    00:00 +5°C° 0 mm 5 m/s 746 mmHg 77%
    01:00 +5°C° 0 mm 5 m/s 747 mmHg 78%
    02:00 +5°C° 0 mm 5 m/s 747 mmHg 79%
    03:00 +3°C° 0 mm 5 m/s 748 mmHg 81%
    04:00 +3°C° 0 mm 5 m/s 748 mmHg 81%
    05:00 +3°C° 0 mm 5 m/s 749 mmHg 81%
    06:00 +2°C° 0 mm 5 m/s 750 mmHg 81%
    07:00 +3°C° 0 mm 5 m/s 750 mmHg 76%
    08:00 +3°C° 0 mm 5 m/s 751 mmHg 71%
    09:00 +4°C° 0 mm 6 m/s 751 mmHg 66%
    10:00 +5°C° 0 mm 6 m/s 752 mmHg 61%
    11:00 +7°C° 0 mm 6 m/s 752 mmHg 55%
    12:00 +8°C° 0 mm 6 m/s 752 mmHg 50%
    13:00 +9°C° 0 mm 6 m/s 752 mmHg 49%
    14:00 +9°C° 0 mm 6 m/s 752 mmHg 48%
    15:00 +9°C° 0 mm 6 m/s 752 mmHg 46%
    16:00 +9°C° 0 mm 5 m/s 752 mmHg 51%
    17:00 +8°C° 0 mm 4 m/s 752 mmHg 55%
    18:00 +8°C° 0 mm 4 m/s 752 mmHg 59%
    19:00 +7°C° 0 mm 4 m/s 752 mmHg 61%
    20:00 +7°C° 0 mm 5 m/s 752 mmHg 62%
    21:00 +6°C° 0 mm 5 m/s 752 mmHg 63%
    22:00 +6°C° 0 mm 5 m/s 752 mmHg 65%
    23:00 +5°C° 0 mm 6 m/s 751 mmHg 66%

    27 Setembro, Quinta-feira

    Tempo Temperatura Precipitação Vento Pressão Humidade
    00:00 +5°C° 0 mm 6 m/s 751 mmHg 67%
    01:00 +5°C° 0.1 mm 6 m/s 750 mmHg 68%
    02:00 +5°C° 0.1 mm 7 m/s 750 mmHg 69%
    03:00 +5°C° 0.1 mm 7 m/s 749 mmHg 70%
    04:00 +5°C° 0.3 mm 8 m/s 749 mmHg 71%
    05:00 +5°C° 0.3 mm 8 m/s 748 mmHg 73%
    06:00 +5°C° 0.3 mm 8 m/s 747 mmHg 75%
    07:00 +5°C° 0.1 mm 9 m/s 747 mmHg 74%
    08:00 +6°C° 0.1 mm 9 m/s 746 mmHg 73%
    09:00 +6°C° 0.1 mm 10 m/s 746 mmHg 72%
    10:00 +7°C° 0 mm 10 m/s 746 mmHg 70%
    11:00 +7°C° 0 mm 10 m/s 745 mmHg 69%
    12:00 +8°C° 0 mm 10 m/s 745 mmHg 67%
    13:00 +8°C° 0.2 mm 9 m/s 745 mmHg 69%
    14:00 +8°C° 0.2 mm 9 m/s 744 mmHg 72%
    15:00 +9°C° 0.2 mm 8 m/s 744 mmHg 74%
    16:00 +9°C° 0.2 mm 8 m/s 743 mmHg 74%
    17:00 +9°C° 0.2 mm 8 m/s 743 mmHg 74%
    18:00 +9°C° 0.2 mm 8 m/s 743 mmHg 74%
    19:00 +10°C° 0.1 mm 8 m/s 742 mmHg 74%
    20:00 +10°C° 0.1 mm 8 m/s 742 mmHg 75%
    21:00 +10°C° 0.1 mm 8 m/s 742 mmHg 75%
    22:00 +10°C° 0 mm 8 m/s 742 mmHg 76%
    23:00 +11°C° 0 mm 8 m/s 741 mmHg 77%
    Mostrar mais